Regional Weather Roundup
Issued by NWS

Home | Current Version | Previous Version | Text Only | Print | Product List | Glossary Off
Versions: 1 2 3 4 5 6 7 8 9 10 11 12 13 14 15 16 17 18 19 20 21 22 23 24 25 26 27 28 29 30 31 32 33 34 35 36 37 38 39 40 41 42 43 44 45 46 47 48 49 50

000
ASUS43 KLSX 201259
RWRMO

WEATHER SUMMARY FOR MISSOURI
NATIONAL WEATHER SERVICE SPRINGFIELD MO
800 AM CDT WED AUG 20 2014

NOTE: "FAIR" INDICATES FEW OR NO CLOUDS BELOW 12,000 FEET WITH NO
       SIGNIFICANT WEATHER AND/OR OBSTRUCTIONS TO VISIBILITY.
       CURRENT SKY AND/OR WEATHER CONDITIONS ARE NOT AVAILABLE FOR
       CHILLICOTHE AND FARMINGTON.

MOZ001>031-035>038-043-044-053-054-201400-
...NORTHERN AND WESTERN MISSOURI...

CITY           SKY/WX    TMP DP  RH WIND       PRES   REMARKS
KANSAS CTY INT PTSUNNY   74  70  87 S10       29.86S
KANSAS C DTWN  MOSUNNY   80  69  69 SW12      29.85S
LEE`S SUMMIT   SUNNY     75  70  84 SW8       29.88S
ST JOSEPH      PTSUNNY   74  70  87 S6        29.84R
KIRKSVILLE     CLOUDY    73  71  93 NW7       29.90R

$$
MOZ066>068-077>081-088>096-101>105-201400-
...SOUTHWEST MISSOURI...

CITY           SKY/WX    TMP DP  RH WIND       PRES   REMARKS
SPRINGFIELD    SUNNY     75  70  84 S8        29.96R
JOPLIN         SUNNY     77  70  79 S12       29.94R

$$
MOZ032>034-039>042-045>050-055>058-069>072-201400-
...CENTRAL MISSOURI...

CITY           SKY/WX    TMP DP  RH WIND       PRES   REMARKS
COLUMBIA       CLOUDY    74  72  93 SW5       29.89S
JEFFERSON CITY CLOUDY    73  70  90 E5        29.89R
ROLLA          PTSUNNY   74  69  85 SW7       29.92R
SEDALIA        CLOUDY    77  71  82 SW10      29.90R
OSAGE BEACH    MOSUNNY   75  70  83 SW5       29.92R

$$
MOZ051-052-059>065-201400-
...EAST CENTRAL MISSOURI...

CITY           SKY/WX    TMP DP  RH WIND       PRES   REMARKS
ST LOUIS INTL  CLOUDY    78  71  79 CALM      29.92R
SPIRIT OF STL  PTSUNNY   72  70  93 CALM      29.89R
ST CHARLES     CLOUDY    73  72  96 NE8       29.91R

$$
MOZ072>076-082>087-097>100-106>115-201400-
...SOUTH CENTRAL AND SOUTHEAST MISSOURI...

CITY           SKY/WX    TMP DP  RH WIND       PRES   REMARKS
CAPE GIRARDEAU SUNNY     74  72  93 SW3       29.92R
FARMINGTON     SUNNY     73  70  88 CALM      29.96R
POPLAR BLUFF   MOSUNNY   76  70  82 SW6       29.94R
WEST PLAINS    SUNNY     76  70  82 W7        29.99R

$$



USA.gov is the U.S. government's official web portal to all federal, state and local government web resources and services.